,,Stat6,,Stat2,,Stat8,,Stat9,,Stat10,,Wind1,,Wind1,
time,status,PA1M_AVG,status,PR1M_SUM,status,RH1M_AVG,status,SR1M_AVG,status,TA1M_AVG,status,W1dAve1m,status,W1sAve1m,
2005-09-05, 00:00:00,VALID,916.688,VALID,0,VALID,100,VALID,-0.0169808,VALID,18.2026,VALID,100,VALID,0.942835,
2005-09-05, 00:01:00,VALID,916.684,VALID,0,VALID,100,VALID,-0.0169808,VALID,18.206,VALID,97,VALID,0.729651,
2005-09-05, 00:02:00,VALID,916.668,VALID,0,VALID,100,VALID,0,VALID,18.2196,VALID,104,VALID,0.878993,
2005-09-05, 00:03:00,VALID,916.683,VALID,0,VALID,100,VALID,0,VALID,18.2224,VALID,97,VALID,0.755682,
2005-09-05, 00:04:00,VALID,916.666,VALID,0,VALID,100,VALID,-0.0339617,VALID,18.2097,VALID,85,VALID,0.720796,
2005-09-05, 00:05:00,VALID,916.677,VALID,0,VALID,100,VALID,-0.0339617,VALID,18.1964,VALID,91,VALID,0.643945,
2005-09-05, 00:06:00,VALID,916.656,VALID,0,VALID,100,VALID,0,VALID,18.1864,VALID,91,VALID,0.85394,
2005-09-05, 00:07:00,VALID,916.642,VALID,0,VALID,100,VALID,-0.0169808,VALID,18.1738,VALID,99,VALID,1.01353,
2005-09-05, 00:08:00,VALID,916.639,VALID,0,VALID,100,VALID,-0.0169808,VALID,18.1673,VALID,89,VALID,0.598586,
2005-09-05, 00:09:00,VALID,916.62,VALID,0,VALID,100,VALID,0,VALID,18.1576,VALID,81,VALID,0.700174,
2005-09-05, 00:10:00,VALID,916.615,VALID,0,VALID,100,VALID,0,VALID,18.1507,VALID,95,VALID,0.962271,
2005-09-05, 00:11:00,VALID,916.597,VALID,0,VALID,100,VALID,-0.0339617,VALID,18.1479,VALID,104,VALID,1.31603,
2005-09-05, 00:12:00,VALID,916.58,VALID,0,VALID,100,VALID,0,VALID,18.1412,VALID,104,VALID,1.17876,
2005-09-05, 00:13:00,VALID,916.566,VALID,0,VALID,100,VALID,-0.0169808,VALID,18.1417,VALID,102,VALID,0.942649,
2005-09-05, 00:14:00,VALID,916.558,VALID,0,VALID,100,VALID,-0.0339617,VALID,18.1482,VALID,111,VALID,0.984375,
2005-09-05, 00:15:00,VALID,916.556,VALID,0,VALID,100,VALID,-0.0169808,VALID,18.1412,VALID,109,VALID,0.783067,
2005-09-05, 00:16:00,VALID,916.554,VALID,0,VALID,100,VALID,0,VALID,18.1382,VALID,120,VALID,0.752262,
2005-09-05, 00:17:00,VALID,916.536,VALID,0,VALID,100,VALID,-0.0169808,VALID,18.1447,VALID,113,VALID,0.889915,
2005-09-05, 00:18:00,VALID,916.52,VALID,0,VALID,100,VALID,-0.0169808,VALID,18.1518,VALID,111,VALID,1.24609,
2005-09-05, 00:19:00,VALID,916.51,VALID,0,VALID,100,VALID,-0.0169808,VALID,18.1546,VALID,107,VALID,0.959722,
2005-09-05, 00:20:00,VALID,916.488,VALID,0,VALID,100,VALID,-0.0339617,VALID,18.1445,VALID,115,VALID,0.971168,
2005-09-05, 00:21:00,VALID,916.467,VALID,0,VALID,100,VALID,-0.0339617,VALID,18.1516,VALID,119,VALID,1.11806,
2005-09-05, 00:22:00,VALID,916.458,VALID,0,VALID,100,VALID,0,VALID,18.1484,VALID,113,VALID,0.881324,
2005-09-05, 00:23:00,VALID,916.432,VALID,0,VALID,100,VALID,-0.0339617,VALID,18.1615,VALID,112,VALID,0.957227,
2005-09-05, 00:24:00,VALID,916.404,VALID,0,VALID,100,VALID,-0.0339617,VALID,18.1482,VALID,113,VALID,0.590799,
2005-09-05, 00:25:00,VALID,916.386,VALID,0,VALID,100,VALID,0,VALID,18.1482,VALID,113,VALID,0.353561,
2005-09-05, 00:26:00,VALID,916.362,VALID,0,VALID,100,VALID,-0.0339617,VALID,18.1514,VALID,123,VALID,0.805398,
2005-09-05, 00:27:00,VALID,916.355,VALID,0,VALID,100,VALID,-0.0169808,VALID,18.1417,VALID,129,VALID,1.07031,
2005-09-05, 00:28:00,VALID,916.334,VALID,0,VALID,100,VALID,-0.0169808,VALID,18.1551,VALID,120,VALID,0.806868,
2005-09-05, 00:29:00,VALID,916.327,VALID,0,VALID,100,VALID,-0.0339617,VALID,18.1648,VALID,125,VALID,1.13717,
2005-09-05, 00:30:00,VALID,916.315,VALID,0,VALID,100,VALID,0.0169808,VALID,18.1643,VALID,129,VALID,0.914435,
2005-09-05, 00:31:00,VALID,916.288,VALID,0,VALID,100,VALID,0.0679233,VALID,18.1595,VALID,105,VALID,0.898256,
2005-09-05, 00:32:00,VALID,916.271,VALID,0,VALID,100,VALID,0.0849042,VALID,18.1763,VALID,105,VALID,1.22961,
2005-09-05, 00:33:00,VALID,916.257,VALID,0,VALID,100,VALID,0.0849042,VALID,18.1659,VALID,108,VALID,1.08426,
2005-09-05, 00:34:00,VALID,916.221,VALID,0,VALID,100,VALID,0.0849042,VALID,18.1763,VALID,106,VALID,1.1516,
2005-09-05, 00:35:00,VALID,916.183,VALID,0,VALID,100,VALID,0.101885,VALID,18.1597,VALID,104,VALID,0.914249,
2005-09-05, 00:36:00,VALID,916.161,VALID,0,VALID,100,VALID,0.0849042,VALID,18.1696,VALID,111,VALID,0.758878,
2005-09-05, 00:37:00,VALID,916.137,VALID,0,VALID,100,VALID,0.0849042,VALID,18.1666,VALID,113,VALID,0.670387,
2005-09-05, 00:38:00,VALID,916.096,VALID,0,VALID,100,VALID,0.0509425,VALID,18.1565,VALID,111,VALID,0.619284,
2005-09-05, 00:39:00,VALID,916.074,VALID,0,VALID,100,VALID,0.0679233,VALID,18.1599,VALID,106,VALID,0.958705,
2005-09-05, 00:40:00,VALID,916.067,VALID,0,VALID,100,VALID,0.101885,VALID,18.15,VALID,106,VALID,0.560268,
2005-09-05, 00:41:00,VALID,916.06,VALID,0,VALID,100,VALID,0.0679233,VALID,18.1537,VALID,125,VALID,0.716844,
2005-09-05, 00:42:00,VALID,916.047,VALID,0,VALID,100,VALID,0.101885,VALID,18.1498,VALID,127,VALID,0.830729,
2005-09-05, 00:43:00,VALID,916.047,VALID,0,VALID,99.9964,VALID,0.0679233,VALID,18.1599,VALID,132,VALID,0.933685,
2005-09-05, 00:44:00,VALID,916.031,VALID,0,VALID,99.9507,VALID,0.0509425,VALID,18.1731,VALID,125,VALID,0.733073,
2005-09-05, 00:45:00,VALID,916.013,VALID,0,VALID,99.8553,VALID,0.0339617,VALID,18.1897,VALID,121,VALID,0.856148,
2005-09-05, 00:46:00,VALID,915.991,VALID,0,VALID,99.7459,VALID,-0.0339617,VALID,18.2003,VALID,131,VALID,0.554501,
2005-09-05, 00:47:00,VALID,915.975,VALID,0,VALID,99.6531,VALID,-0.0339617,VALID,18.213,VALID,104,VALID,0.931323,
2005-09-05, 00:48:00,VALID,915.971,VALID,0,VALID,99.5514,VALID,-0.0169808,VALID,18.2224,VALID,105,VALID,1.13361,
2005-09-05, 00:49:00,VALID,915.954,VALID,0,VALID,99.5857,VALID,-0.0169808,VALID,18.2323,VALID,103,VALID,1.14766,
2005-09-05, 00:50:00,VALID,915.954,VALID,0,VALID,99.7561,VALID,-0.0339617,VALID,18.2291,VALID,103,VALID,1.34226,
2005-09-05, 00:51:00,VALID,915.937,VALID,0,VALID,99.8515,VALID,-0.0169808,VALID,18.2289,VALID,107,VALID,1.32273,
2005-09-05, 00:52:00,VALID,915.943,VALID,0,VALID,99.9151,VALID,-0.0169808,VALID,18.2196,VALID,121,VALID,0.942187,
2005-09-05, 00:53:00,VALID,915.94,VALID,0,VALID,99.9341,VALID,0,VALID,18.2033,VALID,122,VALID,1.0103,
2005-09-05, 00:54:00,VALID,915.925,VALID,0,VALID,99.9367,VALID,0,VALID,18.1837,VALID,113,VALID,1.08926,
2005-09-05, 00:55:00,VALID,915.91,VALID,0,VALID,99.9138,VALID,0.0169808,VALID,18.1643,VALID,112,VALID,1.21236,
2005-09-05, 00:56:00,VALID,915.897,VALID,0,VALID,99.9494,VALID,0,VALID,18.1648,VALID,115,VALID,0.982143,
2005-09-05, 00:57:00,VALID,915.886,VALID,0,VALID,99.957,VALID,-0.0169808,VALID,18.1482,VALID,106,VALID,0.990785,
2005-09-05, 00:58:00,VALID,915.859,VALID,0,VALID,100,VALID,0,VALID,18.1322,VALID,116,VALID,1.17355,
2005-09-05, 00:59:00,VALID,915.839,VALID,0,VALID,100,VALID,-0.0169808,VALID,18.1256,VALID,107,VALID,1.12936,
2005-09-05, 01:00:00,VALID,915.817,VALID,0,VALID,99.9761,VALID,-0.0339617,VALID,18.1219,VALID,104,VALID,1.4713,
2005-09-05, 01:01:00,VALID,915.79,VALID,0,VALID,99.9659,VALID,0,VALID,18.1251,VALID,94,VALID,1.26944,
2005-09-05, 01:02:00,VALID,915.774,VALID,0,VALID,100,VALID,0,VALID,18.1288,VALID,119,VALID,1.24491,
2005-09-05, 01:03:00,VALID,915.751,VALID,0,VALID,100,VALID,0.0169808,VALID,18.1221,VALID,112,VALID,1.26302,
2005-09-05, 01:04:00,VALID,915.727,VALID,0,VALID,100,VALID,-0.0169808,VALID,18.103,VALID,98,VALID,1.5989,
2005-09-05, 01:05:00,VALID,915.696,VALID,0,VALID,100,VALID,-0.0169808,VALID,18.093,VALID,104,VALID,1.67847,
2005-09-05, 01:06:00,VALID,915.694,VALID,0,VALID,100,VALID,0.0169808,VALID,18.0967,VALID,98,VALID,1.23281,
2005-09-05, 01:07:00,VALID,915.67,VALID,0,VALID,100,VALID,0.0169808,VALID,18.0702,VALID,108,VALID,1.50981,
2005-09-05, 01:08:00,VALID,915.655,VALID,0,VALID,99.9916,VALID,0,VALID,18.0804,VALID,108,VALID,1.24112,
2005-09-05, 01:09:00,VALID,915.625,VALID,0,VALID,99.8845,VALID,0.0169808,VALID,18.0834,VALID,110,VALID,1.15295,
2005-09-05, 01:10:00,VALID,915.597,VALID,0,VALID,99.7841,VALID,0,VALID,18.0935,VALID,116,VALID,0.921317,
2005-09-05, 01:11:00,VALID,915.576,VALID,0,VALID,99.6696,VALID,0,VALID,18.0866,VALID,114,VALID,1.2084,
2005-09-05, 01:12:00,VALID,915.542,VALID,0,VALID,99.5209,VALID,0,VALID,18.106,VALID,112,VALID,1.25553,
2005-09-05, 01:13:00,VALID,915.507,VALID,0,VALID,99.3009,VALID,0,VALID,18.1258,VALID,106,VALID,1.32622,
2005-09-05, 01:14:00,VALID,915.493,VALID,0,VALID,99.1139,VALID,0.0169808,VALID,18.1385,VALID,104,VALID,1.54918,
2005-09-05, 01:15:00,VALID,915.487,VALID,0,VALID,98.9855,VALID,-0.0339617,VALID,18.1546,VALID,102,VALID,1.33848,
2005-09-05, 01:16:00,VALID,915.463,VALID,0,VALID,98.8787,VALID,0,VALID,18.1643,VALID,104,VALID,1.6592,
2005-09-05, 01:17:00,VALID,915.439,VALID,0,VALID,98.7859,VALID,0.0169808,VALID,18.1839,VALID,101,VALID,1.62627,
2005-09-05, 01:18:00,VALID,915.433,VALID,0,VALID,98.7566,VALID,0,VALID,18.1869,VALID,95,VALID,1.23038,
2005-09-05, 01:19:00,VALID,915.412,VALID,0,VALID,98.7159,VALID,0,VALID,18.1871,VALID,100,VALID,1.46911,
2005-09-05, 01:20:00,VALID,915.396,VALID,0,VALID,98.6638,VALID,0,VALID,18.1837,VALID,109,VALID,1.30297,
2005-09-05, 01:21:00,VALID,915.385,VALID,0,VALID,98.646,VALID,0,VALID,18.1834,VALID,110,VALID,1.0696,
2005-09-05, 01:22:00,VALID,915.373,VALID,0,VALID,98.7032,VALID,0,VALID,18.1802,VALID,107,VALID,0.955171,
2005-09-05, 01:23:00,VALID,915.365,VALID,0,VALID,98.7414,VALID,0,VALID,18.1874,VALID,135,VALID,0.932706,
2005-09-05, 01:24:00,VALID,915.341,VALID,0,VALID,98.8024,VALID,0,VALID,18.174,VALID,134,VALID,1.11571,
2005-09-05, 01:25:00,VALID,915.312,VALID,0,VALID,98.9334,VALID,0,VALID,18.1772,VALID,115,VALID,1.14135,
2005-09-05, 01:26:00,VALID,915.281,VALID,0,VALID,99.0084,VALID,0.0169808,VALID,18.1643,VALID,111,VALID,0.975852,
2005-09-05, 01:27:00,VALID,915.256,VALID,0,VALID,99.0682,VALID,0.0169808,VALID,18.1551,VALID,109,VALID,0.82492,
2005-09-05, 01:28:00,VALID,915.212,VALID,0,VALID,99.1915,VALID,0,VALID,18.1286,VALID,94,VALID,1.0071,
2005-09-05, 01:29:00,VALID,915.186,VALID,0,VALID,99.3085,VALID,0,VALID,18.1023,VALID,89,VALID,1.10065,
2005-09-05, 01:30:00,VALID,915.149,VALID,0,VALID,99.5031,VALID,0,VALID,18.1025,VALID,89,VALID,1.31343,
2005-09-05, 01:31:00,VALID,915.146,VALID,0,VALID,99.634,VALID,-0.0169808,VALID,18.0965,VALID,83,VALID,1.20152,
2005-09-05, 01:32:00,VALID,915.141,VALID,0,VALID,99.62,VALID,0,VALID,18.0928,VALID,87,VALID,1.2326,
2005-09-05, 01:33:00,VALID,915.126,VALID,0,VALID,99.5145,VALID,0,VALID,18.0997,VALID,86,VALID,1.27671,
2005-09-05, 01:34:00,VALID,915.127,VALID,0,VALID,99.428,VALID,0,VALID,18.09,VALID,82,VALID,1.10764,
2005-09-05, 01:35:00,VALID,915.107,VALID,0,VALID,99.3428,VALID,-0.0339617,VALID,18.087,VALID,93,VALID,1.09551,
2005-09-05, 01:36:00,VALID,915.114,VALID,0,VALID,99.292,VALID,0,VALID,18.0573,VALID,103,VALID,1.35342,
2005-09-05, 01:37:00,VALID,915.103,VALID,0,VALID,99.2983,VALID,0,VALID,18.0647,VALID,115,VALID,1.49219,
2005-09-05, 01:38:00,VALID,915.096,VALID,0,VALID,99.2996,VALID,0,VALID,18.061,VALID,121,VALID,1.39771,
2005-09-05, 01:39:00,VALID,915.095,VALID,0,VALID,99.3085,VALID,0,VALID,18.0804,VALID,105,VALID,1.35029,
2005-09-05, 01:40:00,VALID,915.093,VALID,0,VALID,99.3377,VALID,0,VALID,18.084,VALID,109,VALID,1.16152,
2005-09-05, 01:41:00,VALID,915.09,VALID,0,VALID,99.3721,VALID,-0.0339617,VALID,18.064,VALID,110,VALID,1.28962,
2005-09-05, 01:42:00,VALID,915.084,VALID,0,VALID,99.4026,VALID,-0.0169808,VALID,18.058,VALID,104,VALID,1.28088,
2005-09-05, 01:43:00,VALID,915.087,VALID,0,VALID,99.4522,VALID,0,VALID,18.0515,VALID,105,VALID,1.14583,
2005-09-05, 01:44:00,VALID,915.075,VALID,0,VALID,99.4916,VALID,0,VALID,18.0548,VALID,91,VALID,1.15412,
2005-09-05, 01:45:00,VALID,915.057,VALID,0,VALID,99.5565,VALID,-0.0339617,VALID,18.0446,VALID,98,VALID,1.21075,
2005-09-05, 01:46:00,VALID,915.043,VALID,0,VALID,99.6251,VALID,-0.0339617,VALID,18.0478,VALID,106,VALID,1.35449,
2005-09-05, 01:47:00,VALID,915.033,VALID,0,VALID,99.6913,VALID,-0.0509425,VALID,18.0511,VALID,103,VALID,1.0483,
2005-09-05, 01:48:00,VALID,915.036,VALID,0,VALID,99.7383,VALID,0,VALID,18.0647,VALID,102,VALID,1.39009,
2005-09-05, 01:49:00,VALID,915.013,VALID,0,VALID,99.7675,VALID,0,VALID,18.0714,VALID,110,VALID,1.26973,
2005-09-05, 01:50:00,VALID,915.009,VALID,0,VALID,99.765,VALID,0,VALID,18.0647,VALID,107,VALID,1.00877,
2005-09-05, 01:51:00,VALID,915.001,VALID,0,VALID,99.662,VALID,0,VALID,18.0677,VALID,118,VALID,1.06014,
2005-09-05, 01:52:00,VALID,914.99,VALID,0,VALID,99.5921,VALID,0,VALID,18.0843,VALID,126,VALID,0.98316,
2005-09-05, 01:53:00,VALID,914.984,VALID,0,VALID,99.4662,VALID,0,VALID,18.0836,VALID,116,VALID,0.859715,
2005-09-05, 01:54:00,VALID,914.988,VALID,0,VALID,99.2742,VALID,-0.0339617,VALID,18.096,VALID,111,VALID,0.708203,
2005-09-05, 01:55:00,VALID,914.978,VALID,0,VALID,98.9499,VALID,-0.0169808,VALID,18.1226,VALID,102,VALID,0.835938,
2005-09-05, 01:56:00,VALID,914.987,VALID,0,VALID,98.6295,VALID,-0.0169808,VALID,18.1449,VALID,104,VALID,0.774325,
2005-09-05, 01:57:00,VALID,914.98,VALID,0,VALID,98.3421,VALID,0,VALID,18.1804,VALID,106,VALID,1.05011,
2005-09-05, 01:58:00,VALID,914.98,VALID,0,VALID,98.1094,VALID,-0.0169808,VALID,18.2162,VALID,101,VALID,1.03411,
2005-09-05, 01:59:00,VALID,914.978,VALID,0,VALID,98.0344,VALID,0,VALID,18.2351,VALID,95,VALID,0.842969,
2005-09-05, 02:00:00,VALID,914.96,VALID,0,VALID,98.1259,VALID,-0.0169808,VALID,18.2381,VALID,84,VALID,0.974432,
2005-09-05, 02:01:00,VALID,914.954,VALID,0,VALID,98.281,VALID,-0.0339617,VALID,18.2616,VALID,76,VALID,1.01326,
2005-09-05, 02:02:00,VALID,914.944,VALID,0,VALID,98.3141,VALID,-0.0339617,VALID,18.2425,VALID,79,VALID,1.29637,
2005-09-05, 02:03:00,VALID,914.929,VALID,0,VALID,98.3395,VALID,0,VALID,18.2166,VALID,79,VALID,1.36346,
2005-09-05, 02:04:00,VALID,914.942,VALID,0,VALID,98.4769,VALID,-0.0169808,VALID,18.191,VALID,79,VALID,1.38815,
2005-09-05, 02:05:00,VALID,914.944,VALID,0,VALID,98.6307,VALID,-0.0169808,VALID,18.1518,VALID,85,VALID,1.53038,
2005-09-05, 02:06:00,VALID,914.936,VALID,0,VALID,98.7528,VALID,0,VALID,18.1352,VALID,90,VALID,1.51581,
2005-09-05, 02:07:00,VALID,914.942,VALID,0,VALID,98.8126,VALID,0,VALID,18.129,VALID,95,VALID,1.36644,
2005-09-05, 02:08:00,VALID,914.946,VALID,0,VALID,98.8711,VALID,-0.0169808,VALID,18.1359,VALID,111,VALID,1.43932,
2005-09-05, 02:09:00,VALID,914.941,VALID,0,VALID,98.8825,VALID,0,VALID,18.1258,VALID,109,VALID,1.43388,
2005-09-05, 02:10:00,VALID,914.925,VALID,0,VALID,98.8901,VALID,0,VALID,18.1228,VALID,105,VALID,1.43638,
2005-09-05, 02:11:00,VALID,914.931,VALID,0,VALID,98.8673,VALID,-0.0169808,VALID,18.1161,VALID,101,VALID,1.57972,
2005-09-05, 02:12:00,VALID,914.922,VALID,0,VALID,98.9067,VALID,0,VALID,18.1362,VALID,101,VALID,1.16152,
2005-09-05, 02:13:00,VALID,914.906,VALID,0,VALID,98.9664,VALID,0,VALID,18.1258,VALID,102,VALID,1.34226,
2005-09-05, 02:14:00,VALID,914.883,VALID,0,VALID,99.0237,VALID,0,VALID,18.1131,VALID,107,VALID,1.57489,
2005-09-05, 02:15:00,VALID,914.876,VALID,0,VALID,99.0504,VALID,0.0339617,VALID,18.1156,VALID,105,VALID,1.36967,
2005-09-05, 02:16:00,VALID,914.873,VALID,0,VALID,99.1216,VALID,0.0849042,VALID,18.1182,VALID,118,VALID,1.2301,
2005-09-05, 02:17:00,VALID,914.862,VALID,0,VALID,99.189,VALID,0.101885,VALID,18.1214,VALID,124,VALID,0.722917,
2005-09-05, 02:18:00,VALID,914.853,VALID,0,VALID,99.2284,VALID,0.0509425,VALID,18.1249,VALID,116,VALID,0.862233,
2005-09-05, 02:19:00,VALID,914.849,VALID,0,VALID,99.2462,VALID,0.0679233,VALID,18.1214,VALID,115,VALID,0.920603,
2005-09-05, 02:20:00,VALID,914.854,VALID,0,VALID,99.2564,VALID,0.101885,VALID,18.1177,VALID,109,VALID,1.05614,
2005-09-05, 02:21:00,VALID,914.866,VALID,0,VALID,99.2665,VALID,0.101885,VALID,18.1083,VALID,99,VALID,1.28487,
2005-09-05, 02:22:00,VALID,914.87,VALID,0,VALID,99.2843,VALID,0.101885,VALID,18.1113,VALID,102,VALID,1.26367,
2005-09-05, 02:23:00,VALID,914.866,VALID,0,VALID,99.3339,VALID,0.101885,VALID,18.1177,VALID,98,VALID,1.32329,
2005-09-05, 02:24:00,VALID,914.877,VALID,0,VALID,99.3683,VALID,0.101885,VALID,18.1152,VALID,97,VALID,1.27847,
2005-09-05, 02:25:00,VALID,914.851,VALID,0,VALID,99.3606,VALID,0.101885,VALID,18.1115,VALID,100,VALID,1.5221,
2005-09-05, 02:26:00,VALID,914.838,VALID,0,VALID,99.0796,VALID,0.0509425,VALID,18.1214,VALID,99,VALID,1.8127,
2005-09-05, 02:27:00,VALID,914.832,VALID,0,VALID,98.6791,VALID,0.101885,VALID,18.15,VALID,100,VALID,1.59025,
2005-09-05, 02:28:00,VALID,914.84,VALID,0,VALID,98.2531,VALID,0.101885,VALID,18.2021,VALID,89,VALID,1.30153,
2005-09-05, 02:29:00,VALID,914.834,VALID,0,VALID,97.719,VALID,0.101885,VALID,18.2506,VALID,96,VALID,1.79688,
2005-09-05, 02:30:00,VALID,914.835,VALID,0,VALID,97.4253,VALID,0.0339617,VALID,18.3128,VALID,96,VALID,1.32467,
2005-09-05, 02:31:00,VALID,914.834,VALID,0,VALID,97.2752,VALID,-0.0339617,VALID,18.3357,VALID,111,VALID,1.17759,
2005-09-05, 02:32:00,VALID,914.828,VALID,0,VALID,97.2867,VALID,-0.0509425,VALID,18.3652,VALID,110,VALID,1.06864,
2005-09-05, 02:33:00,VALID,914.822,VALID,0,VALID,97.2777,VALID,-0.0339617,VALID,18.3518,VALID,105,VALID,1.31832,
2005-09-05, 02:34:00,VALID,914.802,VALID,0,VALID,97.2549,VALID,-0.0509425,VALID,18.3488,VALID,112,VALID,1.34189,
2005-09-05, 02:35:00,VALID,914.792,VALID,0,VALID,97.2701,VALID,0,VALID,18.3456,VALID,109,VALID,1.49531,
2005-09-05, 02:36:00,VALID,914.779,VALID,0,VALID,97.3312,VALID,0,VALID,18.3352,VALID,122,VALID,1.11428,
2005-09-05, 02:37:00,VALID,914.77,VALID,0,VALID,97.3629,VALID,0,VALID,18.3391,VALID,111,VALID,1.2984,
2005-09-05, 02:38:00,VALID,914.764,VALID,0,VALID,97.2867,VALID,0,VALID,18.3262,VALID,116,VALID,1.62604,
2005-09-05, 02:39:00,VALID,914.762,VALID,0,VALID,97.1493,VALID,-0.0169808,VALID,18.3322,VALID,110,VALID,1.48493,
2005-09-05, 02:40:00,VALID,914.757,VALID,0,VALID,97.087,VALID,-0.0339617,VALID,18.3421,VALID,113,VALID,1.35317,
2005-09-05, 02:41:00,VALID,914.764,VALID,0,VALID,97.0489,VALID,0,VALID,18.3548,VALID,108,VALID,1.3419,
2005-09-05, 02:42:00,VALID,914.752,VALID,0,VALID,96.937,VALID,0,VALID,18.3682,VALID,125,VALID,1.24647,
2005-09-05, 02:43:00,VALID,914.755,VALID,0,VALID,97.0679,VALID,0,VALID,18.3742,VALID,124,VALID,1.11223,
2005-09-05, 02:44:00,VALID,914.753,VALID,0,VALID,97.1849,VALID,0,VALID,18.3548,VALID,125,VALID,1.35689,
2005-09-05, 02:45:00,VALID,914.745,VALID,0,VALID,97.3782,VALID,-0.0169808,VALID,18.3546,VALID,129,VALID,1.00852,
2005-09-05, 02:46:00,VALID,914.74,VALID,0,VALID,97.4825,VALID,0,VALID,18.3516,VALID,131,VALID,1.7073,
2005-09-05, 02:47:00,VALID,914.742,VALID,0,VALID,97.5066,VALID,0,VALID,18.3253,VALID,129,VALID,1.41518,
2005-09-05, 02:48:00,VALID,914.77,VALID,0,VALID,97.5918,VALID,0.0169808,VALID,18.329,VALID,129,VALID,1.53418,
2005-09-05, 02:49:00,VALID,914.763,VALID,0,VALID,97.6274,VALID,0,VALID,18.3225,VALID,120,VALID,1.29092,
2005-09-05, 02:50:00,VALID,914.75,VALID,0,VALID,97.6325,VALID,0,VALID,18.3195,VALID,131,VALID,1.4043,
2005-09-05, 02:51:00,VALID,914.754,VALID,0,VALID,97.6313,VALID,0.0339617,VALID,18.296,VALID,129,VALID,1.45739,
2005-09-05, 02:52:00,VALID,914.742,VALID,0,VALID,97.6656,VALID,0,VALID,18.3163,VALID,127,VALID,1.43895,
2005-09-05, 02:53:00,VALID,914.742,VALID,0,VALID,97.5359,VALID,0,VALID,18.2994,VALID,132,VALID,1.45839,
2005-09-05, 02:54:00,VALID,914.727,VALID,0,VALID,97.4761,VALID,0,VALID,18.3124,VALID,131,VALID,1.56155,
2005-09-05, 02:55:00,VALID,914.724,VALID,0,VALID,97.3146,VALID,0,VALID,18.3287,VALID,128,VALID,1.54859,
2005-09-05, 02:56:00,VALID,914.707,VALID,0,VALID,97.1353,VALID,0,VALID,18.3486,VALID,129,VALID,1.60366,
2005-09-05, 02:57:00,VALID,914.713,VALID,0,VALID,97.0107,VALID,0,VALID,18.3613,VALID,125,VALID,1.54222,
2005-09-05, 02:58:00,VALID,914.706,VALID,0,VALID,96.937,VALID,0.0169808,VALID,18.3772,VALID,118,VALID,1.27325,
2005-09-05, 02:59:00,VALID,914.703,VALID,0,VALID,96.942,VALID,0.0169808,VALID,18.3804,VALID,113,VALID,0.944586,
2005-09-05, 03:00:00,VALID,914.681,VALID,0,VALID,96.9675,VALID,-0.0169808,VALID,18.3638,VALID,123,VALID,1.26206,
2005-09-05, 03:01:00,VALID,914.683,VALID,0,VALID,96.9586,VALID,-0.0849042,VALID,18.3622,VALID,128,VALID,1.47749,
2005-09-05, 03:02:00,VALID,914.677,VALID,0,VALID,96.9726,VALID,-0.101885,VALID,18.3555,VALID,112,VALID,1.01772,
2005-09-05, 03:03:00,VALID,914.679,VALID,0,VALID,96.9624,VALID,-0.101885,VALID,18.3624,VALID,119,VALID,1.03888,
2005-09-05, 03:04:00,VALID,914.683,VALID,0,VALID,97.0056,VALID,-0.101885,VALID,18.346,VALID,133,VALID,1.01406,
2005-09-05, 03:05:00,VALID,914.662,VALID,0,VALID,97.012,VALID,-0.101885,VALID,18.3363,VALID,128,VALID,1.13948,
2005-09-05, 03:06:00,VALID,914.663,VALID,0,VALID,97.0094,VALID,-0.0849042,VALID,18.3363,VALID,120,VALID,1.05959,
2005-09-05, 03:07:00,VALID,914.653,VALID,0,VALID,96.9598,VALID,-0.0849042,VALID,18.3333,VALID,129,VALID,0.829055,
2005-09-05, 03:08:00,VALID,914.653,VALID,0,VALID,96.9064,VALID,-0.101885,VALID,18.3299,VALID,133,VALID,1.44874,
2005-09-05, 03:09:00,VALID,914.64,VALID,0,VALID,96.8721,VALID,-0.0849042,VALID,18.3366,VALID,134,VALID,1.49665,
2005-09-05, 03:10:00,VALID,914.631,VALID,0,VALID,96.8467,VALID,-0.101885,VALID,18.3363,VALID,134,VALID,1.50446,
2005-09-05, 03:11:00,VALID,914.623,VALID,0,VALID,96.7971,VALID,-0.0849042,VALID,18.3297,VALID,124,VALID,1.24275,
2005-09-05, 03:12:00,VALID,914.625,VALID,0,VALID,96.7233,VALID,-0.0849042,VALID,18.3327,VALID,125,VALID,0.89809,
2005-09-05, 03:13:00,VALID,914.616,VALID,0,VALID,96.7017,VALID,-0.101885,VALID,18.3532,VALID,118,VALID,0.916061,
2005-09-05, 03:14:00,VALID,914.619,VALID,0,VALID,96.7246,VALID,-0.101885,VALID,18.3366,VALID,118,VALID,0.758929,
2005-09-05, 03:15:00,VALID,914.624,VALID,0,VALID,96.6966,VALID,-0.0509425,VALID,18.3324,VALID,108,VALID,0.884115,
2005-09-05, 03:16:00,VALID,914.636,VALID,0,VALID,96.7157,VALID,0.0169808,VALID,18.3253,VALID,100,VALID,0.868823,
2005-09-05, 03:17:00,VALID,914.651,VALID,0,VALID,96.6903,VALID,0,VALID,18.3324,VALID,110,VALID,0.807465,
2005-09-05, 03:18:00,VALID,914.657,VALID,0,VALID,96.7399,VALID,0,VALID,18.3257,VALID,96,VALID,0.744318,
2005-09-05, 03:19:00,VALID,914.65,VALID,0,VALID,96.895,VALID,0,VALID,18.3121,VALID,80,VALID,0.824128,
2005-09-05, 03:20:00,VALID,914.645,VALID,0,VALID,96.8734,VALID,0,VALID,18.3094,VALID,81,VALID,0.981831,
2005-09-05, 03:21:00,VALID,914.635,VALID,0,VALID,96.8289,VALID,0.0169808,VALID,18.3119,VALID,90,VALID,0.898438,
2005-09-05, 03:22:00,VALID,914.626,VALID,0,VALID,96.9077,VALID,0,VALID,18.3154,VALID,110,VALID,0.957889,
2005-09-05, 03:23:00,VALID,914.611,VALID,0,VALID,96.9802,VALID,0.0339617,VALID,18.3126,VALID,118,VALID,0.925071,
2005-09-05, 03:24:00,VALID,914.597,VALID,0,VALID,97.0196,VALID,-0.0169808,VALID,18.29,VALID,140,VALID,1.02453,
2005-09-05, 03:25:00,VALID,914.589,VALID,0,VALID,96.9459,VALID,0,VALID,18.2898,VALID,128,VALID,0.927083,
2005-09-05, 03:26:00,VALID,914.573,VALID,0,VALID,96.7577,VALID,0,VALID,18.3057,VALID,126,VALID,1.06562,
2005-09-05, 03:27:00,VALID,914.563,VALID,0,VALID,96.6038,VALID,0.0339617,VALID,18.3283,VALID,120,VALID,0.986374,
2005-09-05, 03:28:00,VALID,914.56,VALID,0,VALID,96.4881,VALID,0,VALID,18.358,VALID,123,VALID,1.03924,
2005-09-05, 03:29:00,VALID,914.544,VALID,0,VALID,96.3724,VALID,0,VALID,18.3573,VALID,122,VALID,0.862537,
2005-09-05, 03:30:00,VALID,914.53,VALID,0,VALID,96.2401,VALID,0,VALID,18.3772,VALID,118,VALID,1.04902,
2005-09-05, 03:31:00,VALID,914.509,VALID,0,VALID,96.16,VALID,0,VALID,18.3898,VALID,119,VALID,0.954687,
2005-09-05, 03:32:00,VALID,914.495,VALID,0,VALID,96.0456,VALID,0,VALID,18.4095,VALID,104,VALID,0.965701,
2005-09-05, 03:33:00,VALID,914.489,VALID,0,VALID,95.9731,VALID,-0.0169808,VALID,18.4058,VALID,115,VALID,0.99638,
2005-09-05, 03:34:00,VALID,914.479,VALID,0,VALID,95.9044,VALID,0,VALID,18.4129,VALID,103,VALID,1.2167,
2005-09-05, 03:35:00,VALID,914.463,VALID,0,VALID,95.9388,VALID,0.0169808,VALID,18.4256,VALID,102,VALID,1.11387,
2005-09-05, 03:36:00,VALID,914.464,VALID,0,VALID,95.9298,VALID,0.0169808,VALID,18.4249,VALID,103,VALID,1.2152,
2005-09-05, 03:37:00,VALID,914.471,VALID,0,VALID,95.9019,VALID,0.0169808,VALID,18.4284,VALID,109,VALID,1.32143,
2005-09-05, 03:38:00,VALID,914.478,VALID,0,VALID,95.9209,VALID,0,VALID,18.4251,VALID,105,VALID,1.14977,